YZ-1 R/B, 40751

Orbit data source: Space-Track

YZ-1 R/B, 40751 is space debris originally from a launch on Sat, 25 Jul 2015 UTC launched from the Xichang Space Center, China (XSC). Debris objects in space refer to the collection of defunct objects orbiting the Earth. Examples of debris include non-operational satellites, rocket bodies, and fragments generated from explosions, collisions, or faulty payload assembly.

Loading next visibility...
Identifier
40751, 2015-037D
Orbit
Active
Country
Flag of CNCN / PRC
Related business
Manufacturer
CALT
Mission
Spacecraft
Bus & Motor
YZ-1, Unknown motor
Mass
~2,075 kg wet, ~2,075 kg dry
Launch date (UTC)
2015-07-25 (10 years ago)
Launch vehicle
Unknown
Launch site
Xichang Space Center, China (XSC)
Object type
Payload
Rocket body
Debris
Shape & HBR
Double Cone, 2.0 m
Radar Cross Section
5.890 m², Large (>1 m²)

Expand to show TLE details & history
Last TLE update: 2 weeks ago

TLE from 2 weeks ago
0 YZ-1 R/B
1 40751U 15037D   25247.94941971 -.00000090  00000-0  00000-0 0  9997
2 40751  56.4922 349.3313 1020193  72.7269 298.1652  1.56591140 57863
Epoch: 2025-09-04T22:47Z
TLE epoch observation values (Epoch: 2025-09-04T22:47:09.862Z)
Latitude
0.00001°
Longitude
23.22689°
Altitude
23,712.856 km
Speed
3.711 km/s
True Right ascension
23h 17m 17s
True Declination
0° 00' 00"
Sunlit
Object was in full shadow at epoch
Visualization orbit readout
Latitude
Unknown
Longitude
Unknown
Altitude
Unknown
Speed
Unknown
Apparent Right ascension
Unknown
Apparent Declination
Unknown
Sunlit
N/A
Visualization observer readout
Local Sidereal Time
08:15:15
Azimuth
Unknown
Elevation
Unknown
Doppler factor
Unknown
Orbital elements
Apogee altitude
28,142.516 km
Perigee altitude
21,751.026 km
Semi-major axis
31,324.908 km
Eccentricity
0.10202
Inclination
56.4922°
RAAN
349.3313°
Arg. of periapsis
72.7269°
True anomaly
287.2672°
Mean anomaly
298.1652°
Eccentric anomaly
292.7757°
Mean motion
0.39148 °/min
Orbital period
919.59 mins
BSTAR
0
Loading maneuver chart data...
Computing Atmospheric mass density...
Loading historical data...
Loading historical data...
Loading historical data...
Loading historical data...
Loading historical data...
Loading historical data...
Loading historical data...
Other satellites on launch #37 in the year 2015 (2015-07-25 UTC)

Documentation

Showing up to 5 results
|